Flag for U.S.A. Weather past 2 weeks in West Palm Beach, Florida, U.S.A.

Now
75 °F

Scattered clouds.


Feels Like: 77 °F
Forecast: 55 / 74 °F
Wind: 13 mph from Northwest

Location: Palm Beach International Airport

Current Time: Jan 30, 2015 at 3:34:50 PM

Latest Report: Jan 30, 2015 at 2:53 PM


Visibility: 10 mi

Pressure: 30.11 "Hg

Humidity: 36%

Dew point: 46 °F

Location of West Palm BeachLocation

Historic Weather in West Palm Beach — Graph

°F

West Palm Beach temperature yesterday

Maximum temperature yesterday: 71 °F (at 10:53 AM)
Minimum temperature yesterday: 51 °F (at 4:53 AM)
Average temperature yesterday: 64 °F

Past Weeks' High & Low Weather Summary

 TemperatureHumidityPressure
High80 °F (Jan 23, 2:53 PM)97% (Jan 19, 6:53 AM)30.28 "Hg (Jan 19, 6:53 AM)
Low47 °F (Jan 25, 6:53 AM)22% (Jan 28, 2:53 PM)29.82 "Hg (Jan 26, 2:53 PM)
Average66 °F67%30.06 "Hg
* Reported Jan 15 1:00 PM — Jan 30 1:53 PM, West Palm Beach, Weather by CustomWeather, © 2014

Note: Actual official high and low records may vary slightly from our data, if they occured in-between our weather recording intervals... More about our weather records

Advertising

West Palm Beach weather history for previous 24 hours

 ConditionsComfort  
Time TempWeatherWind HumidityBarometerVisibility
1:53 PM
Jan 30
76 °FScattered clouds.14 mph37%30.12 "Hg10 mi
12:53 PM74 °FPassing clouds.12 mph45%30.14 "Hg10 mi
11:53 AM72 °FPassing clouds.13 mph48%30.18 "Hg10 mi
10:53 AM71 °FPassing clouds.10 mph49%30.21 "Hg10 mi
9:53 AM67 °FScattered clouds.7 mph61%30.22 "Hg10 mi
8:53 AM63 °FPassing clouds.9 mph70%30.21 "Hg10 mi
7:53 AM57 °FPassing clouds.6 mph81%30.19 "Hg10 mi
6:53 AM56 °FPassing clouds.5 mph77%30.17 "Hg10 mi
5:53 AM56 °FPassing clouds.3 mph77%30.16 "Hg10 mi
4:53 AM55 °FPassing clouds.5 mph80%30.15 "Hg10 mi
3:53 AM59 °FPassing clouds.5 mph75%30.16 "Hg10 mi
2:53 AM60 °FOvercast.3 mph75%30.17 "Hg10 mi
1:53 AM61 °FPassing clouds.3 mph70%30.18 "Hg10 mi
12:53 AM61 °FOvercast.No wind70%30.19 "Hg10 mi
11:53 PM
Jan 29
60 °FPassing clouds.5 mph72%30.20 "Hg10 mi
10:53 PM60 °FPassing clouds.5 mph75%30.22 "Hg10 mi
9:53 PM60 °FPassing clouds.3 mph69%30.22 "Hg10 mi
8:53 PM67 °FPassing clouds.5 mph55%30.23 "Hg10 mi
7:53 PM67 °FPassing clouds.6 mph51%30.22 "Hg10 mi
6:53 PM67 °FPassing clouds.7 mph51%30.21 "Hg10 mi
5:53 PM68 °FPartly sunny.9 mph51%30.21 "Hg10 mi
4:53 PM70 °FPartly sunny.13 mph47%30.21 "Hg10 mi
3:53 PM70 °FPartly sunny.10 mph47%30.20 "Hg10 mi
Weather by CustomWeather, © 2014

See weather overviewHow to use our weather pages